Date,Installs,Update checks
2017-07-03,36,10
2017-07-04,47,38
2017-07-05,15,63
2017-07-06,8,53
2017-07-07,5,61
2017-07-08,2,55
2017-07-09,5,44
2017-07-10,6,70
2017-07-11,7,57
2017-07-12,8,87
2017-07-13,6,58
2017-07-14,7,84
2017-07-15,8,70
2017-07-16,10,75
2017-07-17,5,77
2017-07-18,6,80
2017-07-19,11,77
2017-07-20,8,90
2017-07-21,7,112
2017-07-22,5,66
2017-07-23,9,96
2017-07-24,7,85
2017-07-25,7,95
2017-07-26,10,78
2017-07-27,13,109
2017-07-28,8,108
2017-07-29,7,103
2017-07-30,10,109
2017-07-31,6,119
2017-08-01,5,120
2017-08-02,5,115
2017-08-03,7,115
2017-08-04,11,121
2017-08-05,3,115
2017-08-06,3,104
2017-08-07,9,128
2017-08-08,4,117
2017-08-09,9,118
2017-08-10,7,134
2017-08-11,7,135
2017-08-12,8,125
2017-08-13,4,114
2017-08-14,2,137
2017-08-15,1,124
2017-08-16,3,138
2017-08-17,2,142
2017-08-18,3,130
2017-08-19,3,111
2017-08-20,9,105
2017-08-21,4,118
2017-08-22,7,127
2017-08-23,1,97
2017-08-24,6,133
2017-08-25,3,135
2017-08-26,9,125
2017-08-27,3,123
2017-08-28,4,139
2017-08-29,2,136
2017-08-30,7,129
2017-08-31,3,123
2017-09-01,4,134
2017-09-02,4,130
2017-09-03,7,136
2017-09-04,1,142
2017-09-05,3,137
2017-09-06,3,88
2017-09-07,2,140
2017-09-08,6,139
2017-09-09,7,125
2017-09-10,6,129
2017-09-11,4,147
2017-09-12,0,129
2017-09-13,0,90
2017-09-14,1,145
2017-09-15,0,133
2017-09-16,1,137
2017-09-17,3,134
2017-09-18,4,142
2017-09-19,4,149
2017-09-20,1,148
2017-09-21,0,138
2017-09-22,1,128
2017-09-23,2,136
2017-09-24,4,127
2017-09-25,2,136
2017-09-26,9,156
2017-09-27,11,146
2017-09-28,8,137
2017-09-29,2,131
2017-09-30,46,142
2017-10-01,36,161
2017-10-02,16,142
2017-10-03,20,152
2017-10-04,12,150
2017-10-05,9,160
2017-10-06,12,166
2017-10-07,11,207
2017-10-08,9,184
2017-10-09,13,192
2017-10-10,6,221
2017-10-11,6,194
2017-10-12,5,196
2017-10-13,3,198
2017-10-14,6,199
2017-10-15,2,171
2017-10-16,4,216
2017-10-17,5,205
2017-10-18,2,226
2017-10-19,2,205
2017-10-20,2,210
2017-10-21,4,207
2017-10-22,5,194
2017-10-23,5,208
2017-10-24,7,218
2017-10-25,5,210
2017-10-26,3,207
2017-10-27,7,205
2017-10-28,7,219
2017-10-29,4,209
2017-10-30,2,230
2017-10-31,3,217
2017-11-01,3,209
2017-11-02,5,220
2017-11-03,2,241
2017-11-04,6,222
2017-11-05,6,221
2017-11-06,3,103
2017-11-07,7,255
2017-11-08,4,202
2017-11-09,2,234
2017-11-10,4,225
2017-11-11,6,218
2017-11-12,4,204
2017-11-13,2,244
2017-11-14,2,233
2017-11-15,3,234
2017-11-16,6,230
2017-11-17,3,216
2017-11-18,4,206
2017-11-19,4,197
2017-11-20,5,217
2017-11-21,7,204
2017-11-22,2,213
2017-11-23,7,211
2017-11-24,8,203
2017-11-25,15,208
2017-11-26,5,209
2017-11-27,3,221
2017-11-28,4,211
2017-11-29,5,233
2017-11-30,4,198
2017-12-01,2,227
2017-12-02,5,210
2017-12-03,3,221
2017-12-04,4,242
2017-12-05,1,219
2017-12-06,3,246
2017-12-07,3,227
2017-12-08,5,244
2017-12-09,12,206
2017-12-10,3,233
2017-12-11,5,231
2017-12-12,5,233
2017-12-13,8,241
2017-12-14,8,233
2017-12-15,4,222
2017-12-16,9,229
2017-12-17,0,217
2017-12-18,6,248
2017-12-19,111,263
2017-12-20,94,344
2017-12-21,45,364
2017-12-22,21,383
2017-12-23,47,345
2017-12-24,7,386
2017-12-25,15,450
2017-12-26,9,420
2017-12-27,12,434
2017-12-28,8,449
2017-12-29,15,429
2017-12-30,14,407
2017-12-31,8,383
2018-01-01,9,396
2018-01-02,10,469
2018-01-03,8,414
2018-01-04,9,473
2018-01-05,11,464
2018-01-06,5,446
2018-01-07,9,418
2018-01-08,8,451
2018-01-09,5,436
2018-01-10,7,466
2018-01-11,9,447
2018-01-12,6,453
2018-01-13,10,438
2018-01-14,3,415
2018-01-15,10,453
2018-01-16,16,461
2018-01-17,7,462
2018-01-18,8,438
2018-01-19,8,478
2018-01-20,7,427
2018-01-21,5,425
2018-01-22,9,476
2018-01-23,5,444
2018-01-24,7,461
2018-01-25,5,445
2018-01-26,0,456
2018-01-27,1,414
2018-01-28,0,398
2018-01-29,2,459
2018-01-30,3,431
2018-01-31,5,443
2018-02-01,1,428
2018-02-02,0,439
2018-02-03,5,383
2018-02-04,5,363
2018-02-05,4,422
2018-02-06,3,433
2018-02-07,1,404
2018-02-08,0,379
2018-02-09,0,413
2018-02-10,0,370
2018-02-11,0,386
2018-02-12,0,357
2018-02-13,8,354
2018-02-14,42,335
2018-02-15,14,315
2018-02-16,17,303
2018-02-17,14,307
2018-02-18,22,315
2018-02-19,22,351
2018-02-20,16,362
2018-02-21,16,399
2018-02-22,22,442
2018-02-23,20,431
2018-02-24,23,458
2018-02-25,14,389
2018-02-26,7,479
2018-02-27,8,473
2018-02-28,6,475
2018-03-01,3,447
2018-03-02,6,467
2018-03-03,7,418
2018-03-04,4,410
2018-03-05,3,492
2018-03-06,2,427
2018-03-07,2,446
2018-03-08,0,465
2018-03-09,2,461
2018-03-10,5,414
2018-03-11,2,380
2018-03-12,1,452
2018-03-13,1,434
2018-03-14,1,417
2018-03-15,3,450
2018-03-16,1,435
2018-03-17,4,419
2018-03-18,6,372
2018-03-19,5,450
2018-03-20,1,430
2018-03-21,4,394
2018-03-22,2,423
2018-03-23,4,451
2018-03-24,4,396
2018-03-25,4,418
2018-03-26,5,474
2018-03-27,5,427
2018-03-28,2,432
2018-03-29,5,428
2018-03-30,2,447
2018-03-31,12,429
2018-04-01,1,391
2018-04-02,5,458
2018-04-03,4,418
2018-04-04,1,441
2018-04-05,9,364
2018-04-06,10,372
2018-04-07,5,398
2018-04-08,5,464
2018-04-09,5,444
2018-04-10,1,442
2018-04-11,3,449
2018-04-12,3,473
2018-04-13,5,426
2018-04-14,6,406
2018-04-15,6,403
2018-04-16,1,461
2018-04-17,2,464
2018-04-18,4,443
2018-04-19,1,448
2018-04-20,5,409
2018-04-21,10,403
2018-04-22,3,389
2018-04-23,1,457
2018-04-24,2,435
2018-04-25,3,445
2018-04-26,6,438
2018-04-27,0,455
2018-04-28,1,425
2018-04-29,2,370
2018-04-30,5,370
2018-05-01,1,365
2018-05-02,3,481
2018-05-03,3,446
2018-05-04,3,434
2018-05-05,4,385
2018-05-06,3,400
2018-05-07,1,467
2018-05-08,2,459
2018-05-09,1,460
2018-05-10,1,435
2018-05-11,1,449
2018-05-12,1,404
2018-05-13,3,393
2018-05-14,1,441
2018-05-15,2,437
2018-05-16,0,419
2018-05-17,2,433
2018-05-18,4,442
2018-05-19,3,303
2018-05-20,4,403
2018-05-21,2,439
2018-05-22,0,427
2018-05-23,2,422
2018-05-24,3,402
2018-05-25,0,411
2018-05-26,0,410
2018-05-27,3,376
2018-05-28,0,423
2018-05-29,1,437
2018-05-30,2,420
2018-05-31,0,441
2018-06-01,2,411
2018-06-02,1,352
2018-06-03,1,357
2018-06-04,1,401
2018-06-05,1,401
2018-06-06,1,392
2018-06-07,1,369
2018-06-08,1,409
2018-06-09,2,340
2018-06-10,2,336
2018-06-11,0,397
2018-06-12,1,375
2018-06-13,1,391
2018-06-14,1,374
2018-06-15,0,390
2018-06-16,1,353
2018-06-17,3,335
2018-06-18,0,330
2018-06-19,0,409
2018-06-20,1,183
2018-06-21,1,257
2018-06-22,3,398
2018-06-23,5,343
2018-06-24,1,351
2018-06-25,3,393
2018-06-26,3,371
2018-06-27,4,353
2018-06-28,3,380
2018-06-29,3,346
2018-06-30,3,354
2018-07-01,2,341
2018-07-02,2,400
2018-07-03,3,376
2018-07-04,2,371
2018-07-05,2,373
2018-07-06,1,379
2018-07-07,1,349
2018-07-08,1,338
2018-07-09,0,398
2018-07-10,1,360
2018-07-11,1,374
2018-07-12,0,379
2018-07-13,2,342
2018-07-14,2,321
2018-07-15,2,347
2018-07-16,4,366
2018-07-17,4,372
2018-07-18,1,357
2018-07-19,0,364
2018-07-20,3,368
2018-07-21,7,337
2018-07-22,11,318
2018-07-23,7,401
2018-07-24,11,381
2018-07-25,176,440
2018-07-26,126,505
2018-07-27,124,548
2018-07-28,99,593
2018-07-29,63,568
2018-07-30,56,655
2018-07-31,39,666
2018-08-01,42,691
2018-08-02,39,676
2018-08-03,52,700
2018-08-04,44,649
2018-08-05,36,688
2018-08-06,23,718
2018-08-07,25,707
2018-08-08,20,731
2018-08-09,21,744
2018-08-10,19,729
2018-08-11,21,714
2018-08-12,21,683
2018-08-13,14,764
2018-08-14,20,755
2018-08-15,18,732
2018-08-16,13,789
2018-08-17,18,734
2018-08-18,19,746
2018-08-19,20,701
2018-08-20,14,804
2018-08-21,16,746
2018-08-22,10,767
2018-08-23,18,761
2018-08-24,26,795
2018-08-25,26,744
2018-08-26,28,740
2018-08-27,28,817
2018-08-28,16,773
2018-08-29,14,765
2018-08-30,12,795
2018-08-31,22,812
2018-09-01,23,751
2018-09-02,18,717
2018-09-03,20,819
2018-09-04,17,769
2018-09-05,20,818
2018-09-06,17,797
2018-09-07,29,811
2018-09-08,26,737
2018-09-09,31,729
2018-09-10,22,868
2018-09-11,20,830
2018-09-12,26,827
2018-09-13,14,830
2018-09-14,13,793
2018-09-15,18,768
2018-09-16,20,729
2018-09-17,13,866
2018-09-18,13,834
2018-09-19,32,822
2018-09-20,46,870
2018-09-21,43,876
2018-09-22,37,800
2018-09-23,35,735
2018-09-24,28,811
2018-09-25,22,883
2018-09-26,29,880
2018-09-27,38,899
2018-09-28,23,856
2018-09-29,19,895
2018-09-30,19,865
2018-10-01,14,735
2018-10-02,17,710
2018-10-03,12,742
2018-10-04,9,777
2018-10-05,24,719
2018-10-06,28,790
2018-10-07,14,869
2018-10-08,12,902
2018-10-09,23,906
2018-10-10,22,892
2018-10-11,11,946
2018-10-12,11,907
2018-10-13,15,850
2018-10-14,11,813
2018-10-15,9,933
2018-10-16,14,874
2018-10-17,5,887
2018-10-18,5,864
2018-10-19,11,893
2018-10-20,18,831
2018-10-21,5,810
2018-10-22,5,917
2018-10-23,1,867
2018-10-24,6,868
2018-10-25,6,897
2018-10-26,6,896
2018-10-27,14,798
2018-10-28,10,803
2018-10-29,7,858
2018-10-30,8,851
2018-10-31,9,836
2018-11-01,8,841
2018-11-02,3,866
2018-11-03,10,819
2018-11-04,14,810
2018-11-05,10,906
2018-11-06,13,850
2018-11-07,9,842
2018-11-08,10,871
2018-11-09,15,853
2018-11-10,11,839
2018-11-11,6,776
2018-11-12,7,893
2018-11-13,15,847
2018-11-14,3,853
2018-11-15,3,858
2018-11-16,10,808
2018-11-17,6,829
2018-11-18,5,787
2018-11-19,10,851
2018-11-20,10,838
2018-11-21,5,823
2018-11-22,7,838
2018-11-23,8,844
2018-11-24,12,795
2018-11-25,12,819
2018-11-26,7,871
2018-11-27,11,848
2018-11-28,9,832
2018-11-29,7,824
2018-11-30,6,859
2018-12-01,8,773
2018-12-02,7,782
2018-12-03,6,874
2018-12-04,8,835
2018-12-05,4,840
2018-12-06,8,829
2018-12-07,5,832
2018-12-08,11,822
2018-12-09,7,734
2018-12-10,11,845
2018-12-11,12,833
2018-12-12,10,822
2018-12-13,9,817
2018-12-14,8,824
2018-12-15,6,781
2018-12-16,10,736
2018-12-17,12,863
2018-12-18,11,842
2018-12-19,11,809
2018-12-20,5,819
2018-12-21,17,816
2018-12-22,7,784
2018-12-23,8,770
2018-12-24,8,818
2018-12-25,11,827
2018-12-26,4,846
2018-12-27,11,821
2018-12-28,8,815
2018-12-29,9,786
2018-12-30,11,731
2018-12-31,12,705
2019-01-01,14,725
2019-01-02,14,858
2019-01-03,8,832
2019-01-04,11,823
2019-01-05,8,793
2019-01-06,10,755
2019-01-07,13,867
2019-01-08,6,802
2019-01-09,9,843
2019-01-10,5,795
2019-01-11,4,815
2019-01-12,6,800
2019-01-13,14,758
2019-01-14,11,834
2019-01-15,8,822
2019-01-16,11,793
2019-01-17,11,821
2019-01-18,3,807
2019-01-19,2,775
2019-01-20,10,750
2019-01-21,5,825
2019-01-22,9,797
2019-01-23,12,823
2019-01-24,10,786
2019-01-25,6,810
2019-01-26,4,745
2019-01-27,8,754
2019-01-28,6,789
2019-01-29,5,754
2019-01-30,12,730
2019-01-31,6,730
2019-02-01,9,706
2019-02-02,8,595
2019-02-03,11,619
2019-02-04,7,528
2019-02-05,15,546
2019-02-06,7,550
2019-02-07,10,574
2019-02-08,13,570
2019-02-09,11,633
2019-02-10,14,688
2019-02-11,12,777
2019-02-12,8,773
2019-02-13,10,789
2019-02-14,11,763
2019-02-15,9,800
2019-02-16,10,758
2019-02-17,8,737
2019-02-18,7,812
2019-02-19,10,812
2019-02-20,12,776
2019-02-21,8,776
2019-02-22,4,765
2019-02-23,11,727
2019-02-24,8,729
2019-02-25,8,797
2019-02-26,5,788
2019-02-27,2,790
2019-02-28,2,790
2019-03-01,6,787
2019-03-02,6,759
2019-03-03,9,765
2019-03-04,8,824
2019-03-05,13,797
2019-03-06,9,795
2019-03-07,15,783
2019-03-08,11,821
2019-03-09,8,732
2019-03-10,8,770
2019-03-11,6,800
2019-03-12,7,826
2019-03-13,6,803
2019-03-14,2,785
2019-03-15,3,807
2019-03-16,2,744
2019-03-17,5,758
2019-03-18,6,837
2019-03-19,3,783
2019-03-20,1,813
2019-03-21,4,799
2019-03-22,4,758
2019-03-23,4,753
2019-03-24,4,705
2019-03-25,2,819
2019-03-26,2,764
2019-03-27,3,767
2019-03-28,2,762
2019-03-29,7,752
2019-03-30,6,722
2019-03-31,6,704
2019-04-01,2,765
2019-04-02,4,785
2019-04-03,4,757
2019-04-04,1,747
2019-04-05,1,685
2019-04-06,4,679
2019-04-07,4,724
2019-04-08,0,775
2019-04-09,3,817
2019-04-10,2,733
2019-04-11,4,766
2019-04-12,6,749
2019-04-13,3,727
2019-04-14,2,727
2019-04-15,6,753
2019-04-16,5,726
2019-04-17,2,751
2019-04-18,5,708
2019-04-19,1,739
2019-04-20,6,691
2019-04-21,8,719
2019-04-22,4,798
2019-04-23,5,761
2019-04-24,3,731
2019-04-25,8,745
2019-04-26,4,765
2019-04-27,1,698
2019-04-28,1,720
2019-04-29,5,698
2019-04-30,12,730
2019-05-01,6,620
2019-05-02,13,636
2019-05-03,8,676
2019-05-04,3,728
2019-05-05,2,737
2019-05-06,3,779
2019-05-07,4,736
2019-05-08,8,765
2019-05-09,3,741
2019-05-10,5,755
2019-05-11,7,689
2019-05-12,3,719
2019-05-13,3,752
2019-05-14,5,735
2019-05-15,7,696
2019-05-16,5,718
2019-05-17,5,685
2019-05-18,5,681
2019-05-19,4,660
2019-05-20,9,761
2019-05-21,8,727
2019-05-22,3,751
2019-05-23,4,686
2019-05-24,0,736
2019-05-25,4,660
2019-05-26,7,666
2019-05-27,2,750
2019-05-28,5,725
2019-05-29,7,723
2019-05-30,5,732
2019-05-31,2,726
2019-06-01,3,719
2019-06-02,4,648
2019-06-03,10,748
2019-06-04,3,728
2019-06-05,4,729
2019-06-06,1,691
2019-06-07,3,587
2019-06-08,5,616
2019-06-09,8,651
2019-06-10,3,715
2019-06-11,4,679
2019-06-12,5,734
2019-06-13,3,703
2019-06-14,6,701
2019-06-15,1,651
2019-06-16,4,634
2019-06-17,6,685
2019-06-18,2,666
2019-06-19,2,675
2019-06-20,5,656
2019-06-21,4,683
2019-06-22,4,614
2019-06-23,5,637
2019-06-24,8,685
2019-06-25,4,651
2019-06-26,3,680
2019-06-27,1,662
2019-06-28,2,655
2019-06-29,1,614
2019-06-30,2,620
2019-07-01,4,675
2019-07-02,4,674
2019-07-03,1,670
2019-07-04,3,651
2019-07-05,2,693
2019-07-06,8,611
2019-07-07,3,612
2019-07-08,3,702
2019-07-09,5,693
2019-07-10,2,651
2019-07-11,4,644
2019-07-12,1,655
2019-07-13,4,625
2019-07-14,3,640
2019-07-15,3,670
2019-07-16,3,694
2019-07-17,7,633
2019-07-18,4,640
2019-07-19,8,692
2019-07-20,5,629
2019-07-21,3,592
2019-07-22,1,679
2019-07-23,5,648
2019-07-24,5,656
2019-07-25,5,658
2019-07-26,6,645
2019-07-27,4,610
2019-07-28,3,617
2019-07-29,2,656
2019-07-30,1,663
2019-07-31,5,654
2019-08-01,4,638
2019-08-02,1,644
2019-08-03,4,618
2019-08-04,6,576
2019-08-05,3,642
2019-08-06,2,637
2019-08-07,1,662
2019-08-08,5,634
2019-08-09,5,670
2019-08-10,4,602
2019-08-11,2,583
2019-08-12,4,657
2019-08-13,2,606
2019-08-14,3,646
2019-08-15,4,632
2019-08-16,5,652
2019-08-17,2,584
2019-08-18,5,604
2019-08-19,4,659
2019-08-20,3,642
2019-08-21,3,608
2019-08-22,2,620
2019-08-23,2,636
2019-08-24,1,573
2019-08-25,3,591
2019-08-26,2,674
2019-08-27,2,616
2019-08-28,1,609
2019-08-29,1,631
2019-08-30,1,649
2019-08-31,4,583
2019-09-01,1,586
2019-09-02,2,648
2019-09-03,3,650
2019-09-04,4,611
2019-09-05,1,665
2019-09-06,2,623
2019-09-07,0,582
2019-09-08,2,551
2019-09-09,3,647
2019-09-10,5,608
2019-09-11,2,598
2019-09-12,2,626
2019-09-13,4,512
2019-09-14,2,549
2019-09-15,1,576
2019-09-16,3,638
2019-09-17,2,623
2019-09-18,2,614
2019-09-19,1,611
2019-09-20,5,642
2019-09-21,3,565
2019-09-22,5,544
2019-09-23,0,632
2019-09-24,4,602
2019-09-25,5,583
2019-09-26,0,586
2019-09-27,0,608
2019-09-28,1,554
2019-09-29,2,612
2019-09-30,0,573
2019-10-01,2,483
2019-10-02,2,472
2019-10-03,2,487
2019-10-04,3,487
2019-10-05,5,499
2019-10-06,3,529
2019-10-07,0,593
2019-10-08,4,654
2019-10-09,6,556
2019-10-10,2,599
2019-10-11,5,606
2019-10-12,4,608
2019-10-13,3,550
2019-10-14,1,600
2019-10-15,0,561
2019-10-16,4,599
2019-10-17,0,553
2019-10-18,2,561
2019-10-19,2,541
2019-10-20,0,530
2019-10-21,3,632
2019-10-22,2,592
2019-10-23,0,599
2019-10-24,0,581
2019-10-25,0,593
2019-10-26,1,550
2019-10-27,0,491
2019-10-28,0,607
2019-10-29,1,600
2019-10-30,0,574
2019-10-31,0,572
2019-11-01,1,576
2019-11-02,1,531
2019-11-03,4,530
2019-11-04,2,595
2019-11-05,3,589
2019-11-06,0,580
2019-11-07,3,573
2019-11-08,0,574
2019-11-09,0,530
2019-11-10,1,568
2019-11-11,1,592
2019-11-12,2,554
2019-11-13,1,560
2019-11-14,0,560
2019-11-15,2,582
2019-11-16,3,547
2019-11-17,2,520
2019-11-18,0,581
2019-11-19,1,564
2019-11-20,1,555
2019-11-21,1,549
2019-11-22,0,571
2019-11-23,6,530
2019-11-24,1,468
2019-11-25,0,574
2019-11-26,2,588
2019-11-27,2,535
2019-11-28,2,570
2019-11-29,0,544
2019-11-30,2,516
2019-12-01,1,519
2019-12-02,2,572
2019-12-03,1,552
2019-12-04,1,571
2019-12-05,0,539
2019-12-06,1,563
2019-12-07,1,510
2019-12-08,3,533
2019-12-09,2,545
2019-12-10,2,563
2019-12-11,2,590
2019-12-12,0,564
2019-12-13,1,534
2019-12-14,0,526
2019-12-15,2,510
2019-12-16,1,578
2019-12-17,3,559
2019-12-18,1,571
2019-12-19,2,537
2019-12-20,0,562
2019-12-21,2,497
2019-12-22,0,499
2019-12-23,0,588
2019-12-24,0,546
2019-12-25,0,577
2019-12-26,3,556
2019-12-27,1,547
2019-12-28,3,522
2019-12-29,2,528
2019-12-30,3,576
2019-12-31,0,558
2020-01-01,0,482
2020-01-02,1,558
2020-01-03,0,556
2020-01-04,1,505
2020-01-05,0,502
2020-01-06,0,550
2020-01-07,1,535
2020-01-08,0,535
2020-01-09,2,560
2020-01-10,0,548
2020-01-11,1,477
2020-01-12,0,507
2020-01-13,0,546
2020-01-14,1,547
2020-01-15,2,522
2020-01-16,0,518
2020-01-17,4,495
2020-01-18,1,497
2020-01-19,0,491
2020-01-20,3,477
2020-01-21,1,447
2020-01-22,4,457
2020-01-23,1,396
2020-01-24,1,397
2020-01-25,0,398
2020-01-26,3,411
2020-01-27,0,441
2020-01-28,1,421
2020-01-29,0,470
2020-01-30,2,460
2020-01-31,1,469
2020-02-01,1,497
2020-02-02,4,494
2020-02-03,2,457
2020-02-04,5,515
2020-02-05,3,523
2020-02-06,4,524
2020-02-07,2,502
2020-02-08,1,147
2020-02-09,2,213
2020-02-10,0,599
2020-02-11,2,531
2020-02-12,0,544
2020-02-13,0,550
2020-02-14,0,515
2020-02-15,3,523
2020-02-16,0,508
2020-02-17,0,549
2020-02-18,1,516
2020-02-19,1,547
2020-02-20,1,537
2020-02-21,1,545
2020-02-22,5,510
2020-02-23,4,503
2020-02-24,1,551
2020-02-25,0,557
2020-02-26,2,546
2020-02-27,3,542
2020-02-28,2,523
2020-02-29,1,518
2020-03-01,2,530
2020-03-02,2,591
2020-03-03,4,542
2020-03-04,2,532
2020-03-05,3,559
2020-03-06,0,576
2020-03-07,0,521
2020-03-08,1,525
2020-03-09,3,554
2020-03-10,2,548
2020-03-11,1,558
2020-03-12,3,543
2020-03-13,1,533
2020-03-14,2,538
2020-03-15,0,492
2020-03-16,3,569
2020-03-17,4,531
2020-03-18,7,566
2020-03-19,10,537
2020-03-20,13,564
2020-03-21,17,536
2020-03-22,11,516
2020-03-23,12,571
2020-03-24,10,540
2020-03-25,5,540
2020-03-26,4,574
2020-03-27,2,564
2020-03-28,2,512
2020-03-29,6,499
2020-03-30,3,540
2020-03-31,2,506
2020-04-01,1,515
2020-04-02,2,537
2020-04-03,2,539
2020-04-04,2,460
2020-04-05,4,501
2020-04-06,5,519
2020-04-07,2,533
2020-04-08,5,524
2020-04-09,8,534
2020-04-10,4,509
2020-04-11,7,514
2020-04-12,6,486
2020-04-13,5,543
2020-04-14,3,550
2020-04-15,2,518
2020-04-16,3,551
2020-04-17,0,504
2020-04-18,3,512
2020-04-19,0,491
2020-04-20,2,526
2020-04-21,5,512
2020-04-22,4,539
2020-04-23,7,501
2020-04-24,2,496
2020-04-25,1,499
2020-04-26,3,514
2020-04-27,1,525
2020-04-28,2,501
2020-04-29,2,492
2020-04-30,3,509
2020-05-01,0,462
2020-05-02,0,447
2020-05-03,1,452
2020-05-04,2,471
2020-05-05,4,462
2020-05-06,2,512
2020-05-07,2,500
2020-05-08,2,491
2020-05-09,0,526
2020-05-10,0,438
2020-05-11,1,516
2020-05-12,0,481
2020-05-13,0,497
2020-05-14,0,498
2020-05-15,1,505
2020-05-16,0,489
2020-05-17,1,465
2020-05-18,1,499
2020-05-19,2,481
2020-05-20,2,494
2020-05-21,0,497
2020-05-22,0,499
2020-05-23,3,437
2020-05-24,1,444
2020-05-25,1,507
2020-05-26,1,449
2020-05-27,1,472
2020-05-28,2,472
2020-05-29,0,476
2020-05-30,2,449
2020-05-31,1,472
2020-06-01,1,512
2020-06-02,0,456
2020-06-03,2,484
2020-06-04,2,489
2020-06-05,1,473
2020-06-06,1,484
2020-06-07,2,455
2020-06-08,1,473
2020-06-09,0,464
2020-06-10,2,491
2020-06-11,0,449
2020-06-12,0,485
2020-06-13,4,448
2020-06-14,3,453
2020-06-15,0,496
2020-06-16,3,482
2020-06-17,1,500
2020-06-18,1,492
2020-06-19,3,501
2020-06-20,1,454
2020-06-21,3,441
2020-06-22,2,485
2020-06-23,1,479
2020-06-24,4,479
2020-06-25,3,433
2020-06-26,4,428
2020-06-27,2,449
2020-06-28,0,489
2020-06-29,0,448
2020-06-30,3,491
2020-07-01,2,456
2020-07-02,2,492
2020-07-03,1,457
2020-07-04,1,435
2020-07-05,0,444
2020-07-06,0,476
2020-07-07,0,458
2020-07-08,0,482
2020-07-09,1,453
2020-07-10,0,460
2020-07-11,0,419
2020-07-12,0,407
2020-07-13,1,439
2020-07-14,0,487
2020-07-15,2,449
2020-07-16,0,448
2020-07-17,1,442
2020-07-18,2,428
2020-07-19,0,416
2020-07-20,0,456
2020-07-21,1,448
2020-07-22,0,405
2020-07-23,1,465
2020-07-24,1,458
2020-07-25,0,418
2020-07-26,0,407
2020-07-27,0,422
2020-07-28,0,447
2020-07-29,0,448
2020-07-30,0,435
2020-07-31,1,449
2020-08-01,0,424
2020-08-02,0,387
2020-08-03,2,445
2020-08-04,0,396
2020-08-05,0,448
2020-08-06,2,420
2020-08-07,0,417
2020-08-08,0,389
2020-08-09,0,382
2020-08-10,1,432
2020-08-11,0,413
2020-08-12,0,446
2020-08-13,1,411
2020-08-14,0,417
2020-08-15,0,413
2020-08-16,0,385
2020-08-17,0,431
2020-08-18,0,420
2020-08-19,0,403
2020-08-20,0,424
2020-08-21,0,420
2020-08-22,0,390
2020-08-23,0,398
2020-08-24,1,413
2020-08-25,0,412
2020-08-26,0,435
2020-08-27,0,401
2020-08-28,0,401
2020-08-29,1,396
2020-08-30,0,395
2020-08-31,0,412
2020-09-01,1,422
2020-09-02,0,401
2020-09-03,0,409
2020-09-04,0,433
2020-09-05,0,396
2020-09-06,1,390
2020-09-07,2,423
2020-09-08,1,395
2020-09-09,0,412
2020-09-10,0,395
2020-09-11,0,433
2020-09-12,0,365
2020-09-13,0,397
2020-09-14,1,411
2020-09-15,1,444
2020-09-16,1,392
2020-09-17,0,425
2020-09-18,0,414
2020-09-19,0,371
2020-09-20,0,374
2020-09-21,2,400
2020-09-22,0,398
2020-09-23,0,405
2020-09-24,0,397
2020-09-25,0,383
2020-09-26,0,395
2020-09-27,0,391
2020-09-28,1,390
2020-09-29,0,396
2020-09-30,1,376
2020-10-01,0,313
2020-10-02,0,306
2020-10-03,1,290
2020-10-04,0,332
2020-10-05,1,305
2020-10-06,1,322
2020-10-07,1,343
2020-10-08,3,361
2020-10-09,0,420
2020-10-10,1,394
2020-10-11,0,360
2020-10-12,0,412
2020-10-13,0,373
2020-10-14,1,382
2020-10-15,0,400
2020-10-16,2,404
2020-10-17,2,365
2020-10-18,0,371
2020-10-19,1,424
2020-10-20,1,372
2020-10-21,0,393
2020-10-22,0,396
2020-10-23,0,396
2020-10-24,4,353
2020-10-25,1,369
2020-10-26,0,402
2020-10-27,0,404
2020-10-28,2,401
2020-10-29,0,382
2020-10-30,1,414
2020-10-31,2,378
2020-11-01,0,352
2020-11-02,0,393
2020-11-03,0,378
2020-11-04,0,431
2020-11-05,1,370
2020-11-06,0,369
2020-11-07,2,343
2020-11-08,1,368
2020-11-09,1,393
2020-11-10,0,398
2020-11-11,0,360
2020-11-12,1,363
2020-11-13,1,401
2020-11-14,1,333
2020-11-15,0,362
2020-11-16,0,396
2020-11-17,0,358
2020-11-18,3,367
2020-11-19,0,385
2020-11-20,0,376
2020-11-21,0,364
2020-11-22,0,328
2020-11-23,0,390
2020-11-24,0,376
2020-11-25,0,380
2020-11-26,1,341
2020-11-27,0,360
2020-11-28,0,335
2020-11-29,1,356
2020-11-30,1,397
2020-12-01,0,360
2020-12-02,0,361
2020-12-03,0,353
2020-12-04,0,375
2020-12-05,0,313
2020-12-06,0,349
2020-12-07,1,406
2020-12-08,1,370
2020-12-09,1,368
2020-12-10,0,353
2020-12-11,0,341
2020-12-12,2,336
2020-12-13,0,367
2020-12-14,1,376
2020-12-15,0,367
2020-12-16,0,354
2020-12-17,0,342
2020-12-18,0,369
2020-12-19,1,333
2020-12-20,0,341
2020-12-21,0,396
2020-12-22,0,354
2020-12-23,0,351
2020-12-24,0,342
2020-12-25,0,359
2020-12-26,1,333
2020-12-27,1,335
2020-12-28,2,370
2020-12-29,1,352
2020-12-30,2,358
2020-12-31,1,350
2021-01-01,2,308
2021-01-02,0,343
2021-01-03,2,352
2021-01-04,0,351
2021-01-05,1,369
2021-01-06,0,371
2021-01-07,0,341
2021-01-08,0,355
2021-01-09,0,350
2021-01-10,0,355
2021-01-11,1,363
2021-01-12,0,339
2021-01-13,0,345
2021-01-14,0,351
2021-01-15,1,353
2021-01-16,0,307
2021-01-17,0,333
2021-01-18,1,365
2021-01-19,0,367
2021-01-20,1,371
2021-01-21,0,363
2021-01-22,0,355
2021-01-23,0,356
2021-01-24,0,333
2021-01-25,0,359
2021-01-26,0,356
2021-01-27,1,363
2021-01-28,0,353
2021-01-29,0,351
2021-01-30,0,316
2021-01-31,1,321
2021-02-01,0,378
2021-02-02,0,358
2021-02-03,0,349
2021-02-04,0,352
2021-02-05,1,370
2021-02-06,0,307
2021-02-07,1,327
2021-02-08,0,334
2021-02-09,1,238
2021-02-10,0,239
2021-02-11,0,195
2021-02-12,0,217
2021-02-13,1,206
2021-02-14,0,151
2021-02-15,0,298
2021-02-16,1,287
2021-02-17,0,324
2021-02-18,0,366
2021-02-19,1,349
2021-02-20,0,363
2021-02-21,1,331
2021-02-22,1,324
2021-02-23,1,366
2021-02-24,0,337
2021-02-25,1,367
2021-02-26,0,374
2021-02-27,0,358
2021-02-28,0,315
2021-03-01,0,394
2021-03-02,0,361
2021-03-03,0,373
2021-03-04,0,379
2021-03-05,0,362
2021-03-06,0,360
2021-03-07,0,348
2021-03-08,0,313
2021-03-09,0,266
2021-03-10,2,303
2021-03-11,0,297
2021-03-12,0,287
2021-03-13,0,286
2021-03-14,0,247
2021-03-15,1,268
2021-03-16,0,325
2021-03-17,0,276
2021-03-18,0,253
2021-03-19,0,286
2021-03-20,1,253
2021-03-21,2,227
2021-03-22,0,266
2021-03-23,1,211
2021-03-24,1,247
2021-03-25,0,310
2021-03-26,1,271
2021-03-27,0,233
2021-03-28,0,229
2021-03-29,1,235
2021-03-30,0,281
2021-03-31,0,229
2021-04-01,1,288
2021-04-02,1,241
2021-04-03,2,201
2021-04-04,0,218
2021-04-05,0,219
2021-04-06,2,275
2021-04-07,1,281
2021-04-08,0,272
2021-04-09,0,255
2021-04-10,0,258
2021-04-11,1,229
2021-04-12,0,208
2021-04-13,0,274
2021-04-14,2,274
2021-04-15,2,228
2021-04-16,2,375
2021-04-17,0,336
2021-04-18,1,335
2021-04-19,0,372
2021-04-20,0,372
2021-04-21,1,350
2021-04-22,2,355
2021-04-23,0,371
2021-04-24,1,316
2021-04-25,1,382
2021-04-26,0,368
2021-04-27,1,341
2021-04-28,2,360
2021-04-29,0,338
2021-04-30,1,340
2021-05-01,0,269